Weather in Ledmozero

Russia / Republic of Karelia     64°15′02″N   32°01′43″E
temp.,
°C
wind,
m/s
gust,
m/s
humid.,
%
clouds,
%
prec.,
mm/h
press.,
hPa
HPBL,
m
28 february, sun
sun2800:00−7sw239462 0.0 101248
03:00−5ssw389281 0.0 1011237
06:00−5ssw2796100 0.1 1009238
09:00−5wsw2497100 0.1 1010109
12:00−1wnw359590 0.0 1011338
15:000wnw479891 0.0 1013423
18:000w489598 0.0 1013330
21:00−3wsw389497 0.0 1013202
1 march, mon
mon100:00−2wsw4109662 0.0 1011322
03:00+1w6129781 0.0 1010558
06:00+1w61690100 0.0 1007699
09:00+2w61391100 0.0 1006899
12:00+1wnw51199100 1.0 1004591
15:00+1w61193100 1.2 1003759
18:00+1w5128599 0.1 10011015
21:00−1wnw6158394 0.1 1001900
2 march, tue
tue200:00−2w6158333 0.0 1000899
03:00−1wnw8187767 0.0 10011298
06:00−3nw71678100 0.0 10021058
09:00−5nw6158278 0.0 1006708
12:00−3nw6118387 0.0 1009828
15:00−1nw5117772 0.0 10111079
18:00−3wnw513810 0.0 1011587
21:00−4nw412913 0.0 1012499
3 march, wed
wed300:00−5wnw411912 0.0 1014350
03:00−6nw310922 0.0 1015297
06:00−8w389322 0.0 1015198
09:00−7w489335 0.0 1014240
12:00−3w4108463 0.0 1012474
15:00−2wsw4108775 0.0 1008513
18:00−2sw61296100 0.4 1003854
21:000w61397100 1.2 997917
4 march, thu
thu400:000w51190100 0.8 993661
03:00−3wnw51480100 0.8 991729
06:00−6nw7139198 0.2 991988
09:00−7n91787100 0.6 9941390
12:00−7nnw71284100 0.1 998922
15:00−7nnw61081100 0.2 1001995
18:00−7nw51193100 0.3 10011043
21:00−8nw51190100 0.8 1001886